1514628000.52,57556,5.44,72278.0,-8.39,-9.37,-9.27,0,*57
1514628001.75,57557,5.44,72282.5,-8.39,-9.27,-9.23,0,*53
1514628002.97,57558,5.44,72282.0,-8.39,-9.27,-9.23,0,*5C
1514628004.16,57559,5.44,72278.3,-8.41,-9.27,-9.19,0,*5B
1514628005.36,57560,5.44,72280.5,-8.41,-9.27,-9.23,0,*58
1514628006.58,57561,5.44,72276.8,-8.41,-9.37,-9.23,0,*58
1514628007.78,57562,5.44,72276.5,-8.41,-9.27,-9.23,0,*5A
1514628009.0,57563,5.44,72274.8,-8.39,-9.27,-9.23,0,*54
1514628010.22,57564,5.44,72276.5,-8.39,-9.27,-9.19,0,*5A
1514628011.45,57565,5.44,72280.0,-8.39,-9.27,-9.19,0,*5B
1514628012.67,57566,5.44,72276.5,-8.39,-9.27,-9.23,0,*51
1514628013.92,57567,5.44,72276.8,-8.39,-9.27,-9.11,0,*51
1514628015.14,57568,5.44,72278.0,-8.39,-9.27,-9.19,0,*56
1514628016.36,57569,5.44,72274.0,-8.39,-9.27,-9.19,0,*57
1514628017.58,57570,5.44,72276.3,-8.39,-9.27,-9.19,0,*5F
1514628018.8,57571,5.44,72276.0,-8.39,-9.23,-9.19,0,*5A
1514628020.02,57572,5.44,72276.5,-8.39,-9.27,-9.19,0,*5D
1514628021.22,57573,5.44,72278.3,-8.37,-9.23,-9.19,0,*56
1514628022.47,57574,5.44,72276.8,-8.35,-9.23,-9.15,0,*5F
1514628023.69,57575,5.44,72282.0,-8.37,-9.23,-9.15,0,*5C
1514628024.91,57576,5.44,72280.0,-8.37,-9.23,-9.15,0,*5F
1514628026.14,57577,5.44,72280.8,-8.37,-9.23,-9.15,0,*5E
1514628027.36,57578,5.44,72276.3,-8.37,-9.19,-9.15,0,*58
1514628028.56,57579,5.44,72276.0,-8.37,-9.19,-9.05,0,*58
1514628029.79,57580,5.44,72274.8,-8.37,-9.19,-9.15,0,*5F
1514628031.04,57581,5.44,72276.5,-8.35,-9.19,-9.15,0,*5C
1514628032.29,57582,5.44,72274.5,-8.37,-9.15,-9.15,0,*51
1514628033.54,57583,5.44,72278.3,-8.35,-9.19,-9.15,0,*5E
1514628034.74,57584,5.44,72280.3,-8.37,-9.19,-9.19,0,*57
1514628035.96,57585,5.44,72278.5,-8.35,-9.19,-9.19,0,*54
1514628037.21,57586,5.44,72278.8,-8.35,-9.19,-9.15,0,*5B
1514628038.41,57587,5.44,72280.0,-8.37,-9.19,-9.19,0,*54
1514628039.66,57588,5.44,72274.5,-8.35,-9.19,-9.15,0,*55
1514628040.88,57589,5.44,72274.5,-8.35,-9.23,-9.19,0,*51
1514628042.11,57590,5.44,72278.5,-8.37,-9.23,-9.15,0,*57
1514628043.35,57591,5.44,72276.0,-8.35,-9.23,-9.15,0,*54
1514628044.55,57592,5.44,72276.0,-8.37,-9.23,-9.19,0,*59
1514628045.78,57593,5.44,72278.3,-8.35,-9.23,-9.19,0,*5A
1514628047.0,57594,5.44,72282.3,-8.35,-9.23,-9.19,0,*5D
1514628048.22,57595,5.44,72278.5,-8.35,-9.31,-9.19,0,*5F
1514628049.45,57596,5.44,72274.5,-8.35,-9.31,-9.19,0,*5C
1514628050.67,57597,5.44,72276.8,-8.35,-9.23,-9.19,0,*5E
1514628051.87,57598,5.44,72276.0,-8.37,-9.31,-9.19,0,*50
1514628053.09,57599,5.44,72276.3,-8.35,-9.31,-9.19,0,*53
1514628054.31,57600,5.44,72280.0,-8.35,-9.31,-9.19,0,*50
1514628055.54,57601,5.44,72276.5,-8.35,-9.23,-9.19,0,*52
1514628056.78,57602,5.44,72276.5,-8.35,-9.31,-9.15,0,*5E
1514628058.03,57603,5.44,72280.0,-8.35,-9.23,-9.15,0,*5C
1514628059.28,57604,5.44,72274.3,-8.35,-9.23,-9.15,0,*5B
1514628060.53,57605,5.44,72274.3,-8.35,-9.23,-9.15,0,*5A
1514628061.76,57606,5.44,72278.3,-8.35,-9.23,-9.19,0,*55
1514628062.98,57607,5.44,72276.0,-8.35,-9.23,-9.19,0,*54
1514628064.23,57608,5.44,72276.0,-8.35,-9.23,-9.15,0,*57
1514628065.48,57609,5.44,72278.3,-8.35,-9.23,-9.15,0,*56
1514628066.7,57610,5.44,72274.8,-8.35,-9.23,-9.19,0,*52
1514628067.92,57611,5.44,72272.3,-8.35,-9.23,-9.19,0,*53
1514628069.15,57612,5.44,72276.0,-8.35,-9.23,-9.19,0,*50
1514628070.37,57613,5.44,72278.5,-8.35,-9.31,-9.19,0,*52
1514628071.59,57614,5.44,72274.3,-8.35,-9.31,-9.19,0,*55
1514628072.82,57615,5.44,72276.5,-8.35,-9.23,-9.23,0,*5E
1514628074.06,57616,5.44,72276.5,-8.35,-9.31,-9.15,0,*5B
1514628075.29,57617,5.44,72278.3,-8.35,-9.23,-9.19,0,*55
1514628076.51,57618,5.44,72276.0,-8.35,-9.31,-9.19,0,*59
1514628077.73,57619,5.44,72278.3,-8.35,-9.23,-9.19,0,*5B
1514628078.96,57620,5.44,72276.5,-8.33,-9.27,-9.11,0,*5B
1514628080.18,57621,5.44,72276.0,-8.33,-9.27,-9.15,0,*5E
1514628081.41,57622,5.44,72276.3,-8.33,-9.27,-9.15,0,*5D
1514628082.63,57623,5.44,72278.0,-8.33,-9.27,-9.15,0,*5C
1514628083.85,57624,5.44,72276.0,-8.33,-9.19,-9.15,0,*56
1514628085.08,57625,5.44,72276.5,-8.33,-9.19,-9.15,0,*57
1514628086.28,57626,5.44,72274.3,-8.29,-9.31,-9.19,0,*59
1514628087.47,57627,5.44,72278.8,-8.33,-9.31,-9.19,0,*53
1514628088.67,57628,5.44,72276.3,-8.33,-9.31,-9.19,0,*5C
1514628089.9,57629,5.44,72276.3,-8.33,-9.41,-9.19,0,*5A
1514628091.12,57630,5.44,72278.5,-8.33,-9.41,-9.27,0,*5F
1514628092.34,57631,5.44,72276.0,-8.33,-9.41,-9.31,0,*59
1514628093.56,57632,5.44,72276.8,-8.33,-9.45,-9.31,0,*5E
1514628094.83,57633,5.44,72278.0,-8.35,-9.57,-9.49,0,*55
1514628096.09,57634,5.44,72278.5,-8.35,-9.57,-9.49,0,*52
1514628097.36,57635,5.44,72276.0,-8.35,-9.57,-9.49,0,*53
1514628098.63,57636,5.44,72276.0,-8.35,-9.61,-9.49,0,*55
1514628099.9,57637,5.44,72278.3,-8.35,-9.61,-9.49,0,*54
1514628101.15,57638,5.44,72274.5,-8.35,-9.71,-9.49,0,*5A
1514628102.42,57639,5.44,72272.3,-8.35,-9.61,-9.57,0,*55
1514628103.69,57640,5.44,72276.0,-8.35,-9.61,-9.57,0,*5B
1514628104.96,57641,5.44,72278.0,-8.35,-9.61,-9.49,0,*55
1514628106.21,57642,5.44,72274.5,-8.35,-9.71,-9.49,0,*57
1514628107.48,57643,5.44,72276.3,-8.35,-9.61,-9.49,0,*57
1514628108.72,57644,5.44,72278.8,-8.37,-9.61,-9.49,0,*52
1514628109.99,57645,5.44,72274.8,-8.35,-9.61,-9.49,0,*51
1514628111.24,57646,5.44,72276.5,-8.37,-9.61,-9.49,0,*50
1514628112.46,57647,5.44,72276.8,-8.37,-9.71,-9.49,0,*50
1514628113.71,57648,5.44,72276.5,-8.37,-9.61,-9.49,0,*5E
1514628114.98,57649,5.44,72276.5,-8.35,-9.57,-9.49,0,*58
1514628116.22,57650,5.44,72274.8,-8.37,-9.61,-9.57,0,*58
1514628117.49,57651,5.44,72276.3,-8.35,-9.61,-9.49,0,*54
1514628118.75,57652,5.44,72276.5,-8.35,-9.61,-9.57,0,*58
1514628120.02,57653,5.44,72278.0,-8.35,-9.61,-9.49,0,*56
1514628121.29,57654,5.44,72278.5,-8.35,-9.61,-9.49,0,*51
1514628122.53,57655,5.44,72276.5,-8.37,-9.61,-9.57,0,*5D
1514628123.77,57656,5.44,72272.0,-8.37,-9.57,-9.49,0,*54
1514628125.04,57657,5.44,72276.0,-8.35,-9.57,-9.57,0,*58
1514628126.28,57658,5.44,72274.0,-8.37,-9.57,-9.45,0,*56
1514628127.52,57659,5.44,72274.5,-8.37,-9.57,-9.49,0,*5B
1514628128.79,57660,5.44,72274.8,-8.35,-9.57,-9.45,0,*5F
1514628130.03,57661,5.44,72278.3,-8.37,-9.49,-9.49,0,*5F
1514628131.31,57662,5.44,72278.8,-8.39,-9.61,-9.53,0,*53
1514628132.57,57663,5.44,72272.8,-8.39,-9.61,-9.41,0,*51
1514628133.82,57664,5.44,72276.3,-8.37,-9.57,-9.45,0,*59
1514628135.04,57665,5.44,72272.5,-8.37,-9.71,-9.49,0,*50
1514628136.28,57666,5.44,72276.8,-8.37,-9.61,-9.57,0,*5D
1514628137.53,57667,5.44,72272.3,-8.37,-9.61,-9.49,0,*53
1514628138.77,57668,5.44,72272.8,-8.37,-9.61,-9.49,0,*5C
1514628140.02,57669,5.44,72272.8,-8.37,-9.61,-9.49,0,*5D
1514628141.26,57670,5.44,72276.3,-8.37,-9.61,-9.45,0,*59
1514628142.51,57671,5.44,72276.5,-8.37,-9.61,-9.49,0,*54
1514628143.75,57672,5.44,72278.5,-8.37,-9.61,-9.49,0,*57
1514628144.99,57673,5.44,72276.8,-8.37,-9.61,-9.49,0,*56
1514628146.23,57674,5.44,72272.8,-8.37,-9.57,-9.49,0,*54
1514628147.48,57675,5.44,72276.8,-8.37,-9.57,-9.45,0,*59
1514628148.74,57676,5.44,72278.0,-8.39,-9.61,-9.49,0,*5D
1514628150.02,57677,5.44,72274.5,-8.39,-9.61,-9.53,0,*57
1514628151.29,57678,5.44,72278.5,-8.39,-9.61,-9.53,0,*58
1514628152.55,57679,5.44,72276.8,-8.39,-9.61,-9.49,0,*52
1514628153.8,57680,5.44,72278.0,-8.41,-9.61,-9.49,0,*5B
1514628155.02,57681,5.44,72278.3,-8.41,-9.67,-9.49,0,*5C
1514628156.26,57682,5.44,72272.0,-8.39,-9.67,-9.49,0,*50
1514628157.53,57683,5.44,72276.5,-8.39,-9.61,-9.49,0,*57
1514628158.8,57684,5.44,72278.5,-8.39,-9.53,-9.49,0,*51
1514628160.04,57685,5.44,72278.5,-8.39,-9.67,-9.49,0,*57
1514628161.31,57686,5.44,72276.3,-8.39,-9.53,-9.49,0,*53
1514628162.58,57687,5.44,72274.3,-8.39,-9.53,-9.49,0,*52
1514628163.85,57688,5.44,72276.8,-8.39,-9.61,-9.49,0,*5C
1514628165.12,57689,5.44,72278.5,-8.39,-9.61,-9.41,0,*55
1514628166.36,57690,5.44,72278.3,-8.41,-9.53,-9.49,0,*5B
1514628167.6,57691,5.44,72272.3,-8.41,-9.61,-9.49,0,*5B
1514628168.85,57692,5.44,72272.5,-8.41,-9.53,-9.49,0,*59
1514628170.09,57693,5.44,72276.3,-8.41,-9.53,-9.49,0,*58
1514628171.34,57694,5.44,72274.3,-8.41,-9.61,-9.49,0,*5E
1514628172.58,57695,5.44,72278.5,-8.41,-9.61,-9.41,0,*57
1514628173.85,57696,5.44,72278.3,-8.39,-9.53,-9.41,0,*5A
1514628175.09,57697,5.44,72272.8,-8.41,-9.53,-9.41,0,*54
1514628176.34,57698,5.44,72276.5,-8.41,-9.53,-9.49,0,*53
1514628177.58,57699,5.44,72278.8,-8.41,-9.53,-9.49,0,*52
1514628178.83,57700,5.44,72278.0,-8.41,-9.53,-9.49,0,*53
1514628180.07,57701,5.44,72276.0,-8.41,-9.53,-9.41,0,*5A
1514628181.31,57702,5.44,72274.3,-8.41,-9.61,-9.49,0,*50
1514628182.56,57703,5.44,72276.3,-8.41,-9.53,-9.49,0,*50
1514628183.8,57704,5.44,72276.5,-8.41,-9.53,-9.41,0,*5F
1514628185.05,57705,5.44,72278.8,-8.41,-9.53,-9.49,0,*56
1514628186.29,57706,5.44,72274.3,-8.41,-9.61,-9.49,0,*54
1514628187.53,57707,5.44,72278.0,-8.41,-9.53,-9.41,0,*5C
1514628188.78,57708,5.44,72276.5,-8.41,-9.53,-9.41,0,*53
1514628190.02,57709,5.44,72278.3,-8.41,-9.53,-9.49,0,*5A
1514628191.26,57710,5.44,72274.0,-8.41,-9.61,-9.41,0,*5B
1514628192.51,57711,5.44,72274.8,-8.41,-9.61,-9.49,0,*52
1514628193.75,57712,5.44,72274.5,-8.41,-9.53,-9.49,0,*50
1514628195.02,57713,5.44,72274.8,-8.39,-9.53,-9.41,0,*56
1514628196.27,57714,5.44,72276.3,-8.43,-9.67,-9.45,0,*5F
1514628197.51,57715,5.44,72278.3,-8.41,-9.61,-9.49,0,*56
1514628198.76,57716,5.44,72276.3,-8.41,-9.53,-9.49,0,*54
1514628200.0,57717,5.44,72274.0,-8.41,-9.61,-9.41,0,*5C
1514628201.24,57718,5.44,72274.0,-8.41,-9.61,-9.41,0,*53
1514628202.49,57719,5.44,72278.8,-8.41,-9.53,-9.41,0,*53
1514628203.75,57720,5.44,72274.8,-8.43,-9.57,-9.53,0,*5C
1514628205.02,57721,5.44,72278.3,-8.43,-9.57,-9.45,0,*5A
1514628206.26,57722,5.44,72274.8,-8.43,-9.67,-9.45,0,*5A
1514628207.53,57723,5.44,72278.8,-8.43,-9.57,-9.53,0,*5F
1514628208.78,57724,5.44,72276.0,-8.43,-9.67,-9.53,0,*5B
1514628210.04,57725,5.44,72272.3,-8.43,-9.57,-9.53,0,*59
1514628211.29,57726,5.44,72276.8,-8.43,-9.67,-9.53,0,*59
1514628212.52,57727,5.44,72278.5,-8.45,-9.67,-9.53,0,*5E
1514628213.75,57728,5.44,72278.5,-8.45,-9.67,-9.53,0,*51
1514628215.02,57729,5.44,72276.3,-8.43,-9.57,-9.53,0,*55
1514628216.29,57730,5.44,72274.5,-8.43,-9.57,-9.45,0,*5A
1514628217.53,57731,5.44,72278.3,-8.43,-9.67,-9.45,0,*58
1514628218.78,57732,5.44,72278.8,-8.43,-9.67,-9.45,0,*5B
1514628220.03,57733,5.44,72278.5,-8.45,-9.57,-9.45,0,*5F
1514628221.26,57734,5.44,72276.5,-8.45,-9.67,-9.53,0,*5C
1514628222.51,57735,5.44,72276.0,-8.45,-9.57,-9.45,0,*59
1514628223.77,57736,5.44,72274.0,-8.43,-9.57,-9.45,0,*5C
1514628225.01,57737,5.44,72278.5,-8.45,-9.67,-9.53,0,*5F
1514628226.23,57738,5.44,72274.8,-8.45,-9.67,-9.45,0,*57
1514628227.48,57739,5.44,72276.5,-8.45,-9.57,-9.45,0,*55
1514628228.73,57740,5.44,72276.8,-8.45,-9.57,-9.53,0,*5C
1514628229.98,57741,5.44,72278.0,-8.43,-9.67,-9.53,0,*58
1514628231.21,57742,5.44,72276.8,-8.45,-9.67,-9.45,0,*5A
1514628232.46,57743,5.44,72276.3,-8.45,-9.57,-9.53,0,*5F
1514628233.69,57744,5.44,72278.3,-8.45,-9.67,-9.45,0,*5C
1514628234.92,57745,5.44,72278.0,-8.45,-9.67,-9.53,0,*5A
1514628236.15,57746,5.44,72276.5,-8.45,-9.67,-9.53,0,*59
1514628237.4,57747,5.44,72278.0,-8.45,-9.57,-9.53,0,*5B
1514628238.63,57748,5.44,72276.8,-8.45,-9.67,-9.53,0,*57
1514628239.9,57749,5.44,72278.3,-8.43,-9.57,-9.53,0,*53
1514628241.17,57750,5.44,72282.3,-8.43,-9.57,-9.45,0,*5C
1514628242.42,57751,5.44,72274.0,-8.47,-9.71,-9.49,0,*51
1514628243.67,57752,5.44,72276.8,-8.47,-9.71,-9.57,0,*5D
1514628244.94,57753,5.44,72272.5,-8.47,-9.61,-9.49,0,*52
1514628246.2,57754,5.44,72274.8,-8.47,-9.71,-9.49,0,*54
1514628247.45,57755,5.44,72278.3,-8.47,-9.71,-9.49,0,*55
1514628248.71,57756,5.44,72278.8,-8.47,-9.71,-9.49,0,*56
1514628249.98,57757,5.44,72276.0,-8.47,-9.61,-9.45,0,*5A
1514628251.22,57758,5.44,72276.8,-8.49,-9.61,-9.57,0,*58
1514628252.47,57759,5.44,72276.3,-8.47,-9.71,-9.49,0,*59
1514628253.72,57760,5.44,72276.5,-8.49,-9.57,-9.49,0,*59
1514628254.98,57761,5.44,72276.0,-8.47,-9.57,-9.49,0,*56
1514628256.25,57762,5.44,72278.0,-8.47,-9.57,-9.49,0,*55
1514628257.51,57763,5.44,72278.3,-8.47,-9.71,-9.49,0,*50
1514628258.78,57764,5.44,72276.5,-8.47,-9.61,-9.49,0,*56
1514628260.05,57765,5.44,72272.5,-8.47,-9.61,-9.49,0,*57
1514628261.32,57766,5.44,72278.0,-8.47,-9.61,-9.45,0,*58
1514628262.59,57767,5.44,72276.8,-8.47,-9.61,-9.49,0,*55
1514628263.86,57768,5.44,72272.5,-8.47,-9.61,-9.49,0,*5A
1514628265.13,57769,5.44,72276.3,-8.47,-9.57,-9.49,0,*5E
1514628266.39,57770,5.44,72274.8,-8.47,-9.57,-9.57,0,*59
1514628267.66,57771,5.44,72276.5,-8.47,-9.57,-9.49,0,*57
1514628268.91,57772,5.44,72276.5,-8.49,-9.61,-9.49,0,*5F
1514628270.17,57773,5.44,72274.0,-8.47,-9.57,-9.49,0,*55
1514628271.42,57774,5.44,72278.8,-8.49,-9.57,-9.49,0,*5C
1514628272.66,57775,5.44,72278.8,-8.49,-9.57,-9.49,0,*5D
1514628273.9,57776,5.44,72276.3,-8.49,-9.61,-9.49,0,*5B
1514628275.15,57777,5.44,72276.0,-8.49,-9.61,-9.49,0,*5A
1514628276.39,57778,5.44,72272.8,-8.49,-9.61,-9.49,0,*55
1514628277.64,57779,5.44,72276.8,-8.49,-9.61,-9.45,0,*58
1514628278.88,57780,5.44,72276.5,-8.49,-9.57,-9.45,0,*5B
1514628280.12,57781,5.44,72274.5,-8.49,-9.57,-9.45,0,*5A
1514628281.4,57782,5.44,72278.8,-8.51,-9.61,-9.53,0,*52
1514628282.65,57783,5.44,72274.3,-8.51,-9.67,-9.53,0,*55
1514628283.92,57784,5.44,72278.3,-8.51,-9.61,-9.49,0,*5F
1514628285.19,57785,5.44,72276.0,-8.51,-9.61,-9.49,0,*5E
1514628286.46,57786,5.44,72274.3,-8.51,-9.61,-9.49,0,*5D
1514628287.73,57787,5.44,72274.5,-8.51,-9.53,-9.49,0,*5D
1514628289.0,57788,5.44,72272.3,-8.51,-9.61,-9.41,0,*5B
1514628290.25,57789,5.44,72272.0,-8.51,-9.67,-9.53,0,*5F
1514628291.52,57790,5.44,72276.0,-8.51,-9.61,-9.49,0,*5A
1514628292.79,57791,5.44,72276.0,-8.51,-9.61,-9.61,0,*51
1514628294.03,57792,5.44,72274.3,-8.55,-9.61,-9.57,0,*53
1514628295.3,57793,5.44,72278.3,-8.51,-9.61,-9.53,0,*52
1514628296.55,57794,5.44,72272.5,-8.51,-9.67,-9.53,0,*53
1514628297.77,57795,5.44,72272.0,-8.55,-9.67,-9.57,0,*52
1514628299.01,57796,5.44,72272.5,-8.55,-9.57,-9.57,0,*52
1514628300.28,57797,5.44,72272.8,-8.51,-9.53,-9.53,0,*57
1514628301.55,57798,5.44,72276.0,-8.51,-9.61,-9.53,0,*59
1514628302.77,57799,5.44,72274.8,-8.55,-9.67,-9.57,0,*5E
1514628303.99,57800,5.44,72272.8,-8.55,-9.67,-9.57,0,*51
1514628305.26,57801,5.44,72276.3,-8.51,-9.53,-9.49,0,*5C
1514628306.48,57802,5.44,72272.8,-8.55,-9.67,-9.53,0,*57
1514628307.7,57803,5.44,72274.5,-8.55,-9.67,-9.53,0,*56
1514628308.94,57804,5.44,72274.5,-8.55,-9.57,-9.57,0,*56
1514628310.15,57805,5.44,72272.0,-8.55,-9.67,-9.57,0,*54
1514628311.35,57806,5.44,72272.8,-8.55,-9.67,-9.67,0,*54
1514628312.59,57807,5.44,72274.3,-8.55,-9.57,-9.53,0,*51
1514628313.79,57808,5.44,72274.0,-8.55,-9.67,-9.67,0,*5A
1514628315.0,57809,5.44,72274.8,-8.59,-9.67,-9.57,0,*54
1514628316.23,57810,5.44,72272.0,-8.59,-9.71,-9.53,0,*5F
1514628317.45,57811,5.44,72272.3,-8.59,-9.67,-9.53,0,*59
1514628318.69,57812,5.44,72270.5,-8.59,-9.57,-9.53,0,*59
1514628319.9,57813,5.44,72274.0,-8.59,-9.67,-9.61,0,*5A
1514628321.12,57814,5.44,72272.8,-8.59,-9.67,-9.53,0,*5C
1514628322.38,57815,5.44,72272.8,-8.61,-9.71,-9.49,0,*5A
1514628323.63,57816,5.44,72274.0,-8.61,-9.71,-9.57,0,*56
1514628324.88,57817,5.44,72272.0,-8.61,-9.71,-9.57,0,*57
1514628326.14,57818,5.44,72272.0,-8.61,-9.71,-9.57,0,*58
1514628327.39,57819,5.44,72274.0,-8.61,-9.71,-9.57,0,*59
1514628328.64,57820,5.44,72270.5,-8.61,-9.71,-9.49,0,*5C
1514628329.91,57821,5.44,72276.0,-8.61,-9.61,-9.57,0,*53
1514628331.18,57822,5.44,72274.8,-8.61,-9.61,-9.57,0,*50
1514628332.43,57823,5.44,72274.5,-8.61,-9.71,-9.57,0,*50
1514628333.69,57824,5.44,72272.0,-8.61,-9.71,-9.57,0,*57
1514628334.93,57825,5.44,72272.0,-8.65,-9.67,-9.61,0,*50
1514628336.16,57826,5.44,72274.5,-8.63,-9.71,-9.57,0,*57
1514628337.4,57827,5.44,72272.3,-8.63,-9.61,-9.49,0,*58
1514628338.65,57828,5.44,72274.0,-8.61,-9.71,-9.57,0,*5B
1514628339.91,57829,5.44,72272.3,-8.61,-9.71,-9.57,0,*5A
1514628341.16,57830,5.44,72270.3,-8.61,-9.71,-9.57,0,*52
1514628342.4,57831,5.44,72274.8,-8.63,-9.61,-9.57,0,*50
1514628343.64,57832,5.44,72274.8,-8.63,-9.61,-9.57,0,*53
1514628344.86,57833,5.44,72268.5,-8.63,-9.67,-9.53,0,*50
1514628346.11,57834,5.44,72274.0,-8.65,-9.75,-9.53,0,*52
1514628347.36,57835,5.44,72270.5,-8.65,-9.75,-9.61,0,*52
1514628348.59,57836,5.44,72274.0,-8.63,-9.71,-9.61,0,*53
1514628349.83,57837,5.44,72274.5,-8.63,-9.61,-9.61,0,*53
1514628351.03,57838,5.44,72270.5,-8.63,-9.67,-9.67,0,*5C
1514628352.27,57839,5.44,72272.3,-8.65,-9.67,-9.61,0,*5D
1514628353.52,57840,5.44,72274.0,-8.65,-9.75,-9.61,0,*50
1514628354.78,57841,5.44,72268.5,-8.65,-9.75,-9.53,0,*50
1514628356.02,57842,5.44,72274.0,-8.65,-9.67,-9.61,0,*51
1514628357.25,57843,5.44,72272.3,-8.65,-9.75,-9.67,0,*55
1514628358.45,57844,5.44,72270.0,-8.67,-9.71,-9.71,0,*53
1514628359.66,57845,5.44,72272.3,-8.67,-9.71,-9.67,0,*55
1514628360.88,57846,5.44,72270.5,-8.67,-9.75,-9.61,0,*54
1514628362.11,57847,5.44,72268.5,-8.67,-9.75,-9.61,0,*55
1514628363.33,57848,5.44,72272.5,-8.67,-9.75,-9.61,0,*5A
1514628364.58,57849,5.44,72270.8,-8.69,-9.83,-9.67,0,*5A
1514628365.83,57850,5.44,72274.0,-8.69,-9.83,-9.67,0,*52
1514628367.06,57851,5.44,72272.8,-8.69,-9.79,-9.71,0,*51
1514628368.26,57852,5.44,72268.0,-8.67,-9.75,-9.67,0,*57
1514628369.51,57853,5.44,72268.3,-8.69,-9.83,-9.79,0,*5E
1514628370.74,57854,5.44,72270.3,-8.69,-9.79,-9.67,0,*53
1514628371.98,57855,5.44,72270.8,-8.69,-9.83,-9.67,0,*57
1514628373.23,57856,5.44,72270.8,-8.69,-9.83,-9.79,0,*5B
1514628374.45,57857,5.44,72272.5,-8.71,-9.83,-9.71,0,*5B
1514628375.7,57858,5.44,72270.8,-8.73,-9.97,-9.83,0,*5E
1514628376.92,57859,5.44,72270.8,-8.71,-9.83,-9.71,0,*55
1514628378.12,57860,5.44,72272.3,-8.71,-9.93,-9.79,0,*56
1514628379.34,57861,5.44,72270.8,-8.73,-9.89,-9.75,0,*52
1514628380.56,57862,5.44,72268.5,-8.73,-9.89,-9.79,0,*5D
1514628381.78,57863,5.44,72270.3,-8.73,-9.89,-9.79,0,*5C
1514628383.0,57864,5.44,72272.8,-8.73,-9.89,-9.75,0,*57
1514628384.22,57865,5.44,72268.3,-8.73,-9.89,-9.75,0,*56
1514628385.46,57866,5.44,72272.0,-8.73,-9.83,-9.75,0,*5F
1514628386.68,57867,5.44,72272.5,-8.73,-9.89,-9.75,0,*54
1514628387.93,57868,5.44,72270.0,-8.73,-9.83,-9.75,0,*51
1514628389.15,57869,5.44,72268.5,-8.73,-9.89,-9.75,0,*5A
1514628390.37,57870,5.44,72268.5,-8.73,-9.89,-9.75,0,*52
1514628391.56,57871,5.44,72268.5,-8.75,-9.89,-9.75,0,*55
1514628392.78,57872,5.44,72272.8,-8.75,-9.83,-9.75,0,*5C
1514628394.0,57873,5.44,72270.8,-8.75,-9.83,-9.75,0,*5D
1514628395.22,57874,5.44,72272.5,-8.75,-9.83,-9.75,0,*5A
1514628396.44,57875,5.44,72270.3,-8.77,-9.89,-9.79,0,*5F
1514628397.67,57876,5.44,72270.8,-8.77,-9.89,-9.89,0,*53
1514628398.89,57877,5.44,72270.8,-8.81,-9.93,-9.79,0,*5F
1514628400.12,57878,5.44,72268.8,-8.77,-9.79,-9.75,0,*51
1514628401.34,57879,5.44,72268.5,-8.77,-9.89,-9.79,0,*53
1514628402.57,57880,5.44,72270.5,-8.77,-9.93,-9.89,0,*51
1514628403.79,57881,5.44,72268.5,-8.81,-9.93,-9.93,0,*52
1514628405.01,57882,5.44,72270.3,-8.81,-9.97,-9.93,0,*55
1514628406.21,57883,5.44,72270.3,-8.83,-9.97,-9.93,0,*56
1514628407.43,57884,5.44,72272.5,-8.83,-9.97,-9.83,0,*50
1514628408.65,57885,5.44,72272.0,-8.81,-9.97,-9.97,0,*56
1514628409.87,57886,5.44,72272.0,-8.81,-10.05,-9.97,0,*66
1514628411.09,57887,5.44,72270.5,-8.81,-9.97,-9.97,0,*54
1514628412.29,57888,5.44,72268.8,-8.83,-10.05,-9.97,0,*6A
1514628413.52,57889,5.44,72274.8,-8.87,-10.09,-10.01,0,*54
1514628414.72,57890,5.44,72270.5,-8.85,-10.05,-9.97,0,*65
1514628415.93,57891,5.44,72268.0,-8.85,-10.09,-10.05,0,*5B
1514628417.12,57892,5.44,72268.0,-8.85,-10.09,-9.97,0,*6B
1514628418.36,57893,5.44,72268.3,-8.87,-10.23,-10.09,0,*5F
1514628419.56,57894,5.44,72270.5,-8.85,-10.09,-10.05,0,*5E
1514628420.81,57895,5.44,72272.0,-8.87,-10.15,-10.09,0,*5C
1514628422.05,57896,5.44,72272.5,-8.87,-10.23,-10.15,0,*57
1514628423.28,57897,5.44,72268.8,-8.87,-10.23,-10.09,0,*5B
1514628424.53,57898,5.44,72268.0,-8.87,-10.15,-10.09,0,*51
1514628425.74,57899,5.44,72270.0,-8.89,-10.23,-10.09,0,*5B
1514628426.98,57900,5.44,72268.8,-8.91,-10.19,-10.15,0,*57
1514628428.19,57901,5.44,72268.8,-8.89,-10.23,-10.01,0,*53
1514628429.42,57902,5.44,72270.8,-8.91,-10.27,-10.05,0,*59
1514628430.66,57903,5.44,72266.8,-8.91,-10.27,-10.15,0,*59
1514628431.9,57904,5.44,72274.3,-8.91,-10.27,-10.19,0,*52
1514628433.14,57905,5.44,72270.5,-8.91,-10.27,-10.27,0,*5E
1514628434.35,57906,5.44,72270.8,-8.93,-10.31,-10.31,0,*5F
1514628435.57,57907,5.44,72270.0,-8.93,-10.35,-10.23,0,*59
1514628436.81,57908,5.44,72270.3,-8.95,-10.35,-10.31,0,*53
1514628438.06,57909,5.44,72268.0,-8.95,-10.35,-10.31,0,*52
1514628439.3,57910,5.44,72270.8,-8.95,-10.35,-10.23,0,*59
1514628440.54,57911,5.44,72274.5,-8.95,-10.35,-10.31,0,*5B
1514628441.78,57912,5.44,72270.3,-8.95,-10.35,-10.31,0,*58
1514628443.03,57913,5.44,72270.3,-8.97,-10.41,-10.27,0,*5F
1514628444.29,57914,5.44,72274.0,-8.99,-10.41,-10.35,0,*55
1514628445.51,57915,5.44,72270.0,-8.97,-10.49,-10.35,0,*52
1514628446.75,57916,5.44,72270.3,-8.99,-10.49,-10.35,0,*5F
1514628448.02,57917,5.44,72268.5,-8.99,-10.49,-10.41,0,*5D
1514628449.28,57918,5.44,72268.3,-8.99,-10.49,-10.41,0,*52
1514628450.54,57919,5.44,72266.8,-8.99,-10.49,-10.41,0,*53
1514628451.78,57920,5.44,72270.0,-9.03,-10.53,-10.45,0,*54
1514628453.01,57921,5.44,72268.3,-9.03,-10.53,-10.45,0,*55
1514628454.25,57922,5.44,72268.3,-9.03,-10.57,-10.53,0,*55
1514628455.5,57923,5.44,72270.0,-9.05,-10.67,-10.53,0,*51
1514628456.74,57924,5.44,72268.8,-9.05,-10.67,-10.57,0,*52
1514628458.02,57925,5.44,72274.0,-9.09,-10.71,-10.63,0,*5F
1514628459.29,57926,5.44,72272.3,-9.09,-10.71,-10.71,0,*5F
1514628460.56,57927,5.44,72268.3,-9.09,-10.75,-10.71,0,*5A
1514628461.83,57928,5.44,72266.0,-9.09,-10.75,-10.63,0,*56
1514628463.1,57929,5.44,72270.8,-9.09,-10.75,-10.71,0,*54
1514628464.34,57930,5.44,72268.8,-9.09,-10.85,-10.71,0,*53
1514628465.61,57931,5.44,72268.5,-9.09,-10.75,-10.71,0,*5D
1514628466.85,57932,5.44,72270.8,-9.09,-10.85,-10.75,0,*55
1514628468.09,57933,5.44,72268.5,-9.13,-10.89,-10.79,0,*5F
1514628469.36,57934,5.44,72268.5,-9.13,-10.79,-10.79,0,*57
1514628470.6,57935,5.44,72270.8,-9.13,-10.89,-10.79,0,*59
1514628471.82,57936,5.44,72268.3,-9.13,-10.89,-10.89,0,*55
1514628473.06,57937,5.44,72270.5,-9.15,-10.97,-10.93,0,*56
1514628474.31,57938,5.44,72266.3,-9.15,-10.97,-10.93,0,*59
1514628475.55,57939,5.44,72270.8,-9.17,-11.01,-10.93,0,*54
1514628476.8,57940,5.44,72270.3,-9.17,-11.01,-10.93,0,*5A
1514628478.04,57941,5.44,72270.3,-9.17,-11.01,-10.93,0,*5B
1514628479.29,57942,5.44,72268.3,-9.17,-10.97,-11.01,0,*5C
1514628480.53,57943,5.44,72270.3,-9.21,-11.15,-11.01,0,*53
1514628481.8,57944,5.44,72268.5,-9.21,-11.15,-11.07,0,*52
1514628483.04,57945,5.44,72270.8,-9.21,-11.15,-11.01,0,*55
1514628484.28,57946,5.44,72270.8,-9.19,-11.19,-11.07,0,*57
1514628485.49,57947,5.44,72270.8,-9.23,-11.19,-11.23,0,*59
1514628486.7,57948,5.44,72268.5,-9.27,-11.23,-11.23,0,*5B
1514628487.92,57949,5.44,72270.0,-9.27,-11.23,-11.23,0,*5A
1514628489.16,57950,5.44,72268.5,-9.23,-11.33,-11.23,0,*57
1514628490.42,57951,5.44,72268.3,-9.27,-11.33,-11.33,0,*53
1514628491.69,57952,5.44,72268.8,-9.29,-11.37,-11.41,0,*5F
1514628492.96,57953,5.44,72270.5,-9.29,-11.41,-11.37,0,*5E
1514628494.22,57954,5.44,72272.0,-9.31,-11.37,-11.37,0,*51
1514628495.47,57955,5.44,72268.0,-9.33,-11.45,-11.45,0,*52
1514628496.71,57956,5.44,72270.0,-9.33,-11.45,-11.45,0,*51
1514628497.96,57957,5.44,72270.3,-9.35,-11.55,-11.45,0,*57
1514628499.2,57958,5.44,72268.8,-9.35,-11.55,-11.41,0,*5C
1514628500.45,57959,5.44,72272.5,-9.35,-11.55,-11.45,0,*59
1514628501.69,57960,5.44,72270.3,-9.35,-11.55,-11.41,0,*57
1514628502.99,57961,5.44,72268.0,-9.37,-11.63,-11.59,0,*58
1514628504.28,57962,5.44,72268.0,-9.37,-11.59,-11.59,0,*52
1514628505.55,57963,5.44,72268.8,-9.39,-11.63,-11.59,0,*54
1514628506.81,57964,5.44,72272.5,-9.39,-11.63,-11.59,0,*53
1514628508.11,57965,5.44,72270.8,-9.41,-11.77,-11.63,0,*51
1514628509.4,57966,5.44,72268.8,-9.41,-11.81,-11.77,0,*5E
1514628510.66,57967,5.44,72268.5,-9.43,-11.81,-11.81,0,*54
1514628511.92,57968,5.44,72272.3,-9.43,-11.81,-11.77,0,*52
1514628513.2,57969,5.44,72270.3,-9.45,-11.81,-11.81,0,*5C
1514628514.49,57970,5.44,72272.0,-9.45,-11.85,-11.85,0,*54
1514628515.79,57971,5.44,72270.3,-9.45,-11.93,-11.85,0,*52
1514628517.07,57972,5.44,72274.0,-9.49,-11.93,-11.85,0,*5D
1514628518.35,57973,5.44,72270.0,-9.49,-11.97,-11.85,0,*58